{"data":{"norad_id":68634,"intl_designator":"2026-074H","name":"AGGIESAT6 (AGS6)","alt_names":[],"object_type":"PAYLOAD","status":"ACTIVE","operator":null,"country":"US","launch_date":"2026-04-07","launch_site_code":"AFWTR","launch_vehicle":null,"mission":null,"orbit_class":"UNKNOWN","rcs_meters":null,"size_class":null,"mass_kg":null,"dimensions":null,"purposes":[],"wikipedia_slug":null,"has_3d_model":false,"image_url":null,"decayed_at":null,"tle_current":{"epoch":"2026-05-25T00:52:50.329632Z","epoch_age_seconds":62060,"freshness":"FRESH","line1":"1 68634U 26074H   26145.03669363  .00007559  00000+0  30006-3 0  9997","line2":"2 68634  60.0204 266.5784 0026003  17.7602 342.4382 15.25974840  7269","mean_motion":15.2597484,"eccentricity":0.0026003,"inclination_deg":60.0204,"raan_deg":266.5784,"arg_perigee_deg":17.7602,"mean_anomaly_deg":342.4382,"bstar":0.00030006,"rev_number":726,"period_min":94.365907107617,"perigee_km":470.00608392945,"apogee_km":505.71338655074,"semimajor_km":6865.9967352401,"source":"CELESTRAK","updated_at":"2026-05-25T13:38:07.988889Z"}}}